Regional Weather Roundup
Issued by NWS Newport/Morehead, NC

Current Version | Previous Version | Graphics & Text | Print | Product List | Glossary Off
Versions: 1 2 3 4 5 6 7 8 9 10 11 12 13 14 15 16 17 18 19 20 21 22 23 24 25 26 27 28 29 30 31 32 33 34 35 36 37 38 39 40 41 42 43 44 45 46 47 48 49 50

000
ASUS42 KMHX 212325
RWRMHX
WEATHER ROUNDUP FOR EASTERN NORTH CAROLINA
NATIONAL WEATHER SERVICE NEWPORT/MOREHEAD CITY NC
700 PM EDT MON AUG 21 2017

NOTE: "FAIR" INDICATES FEW OR NO CLOUDS BELOW 12,000 FEET
WITH NO SIGNIFICANT WEATHER AND/OR OBSTRUCTIONS TO VISIBILITY

NCZ015>017-031-032-045>047-102-103-220000-
NORTH COAST

CITY           SKY/WX    TMP DP  RH WIND       PRES   REMARKS
EDENTON        CLEAR     86  73  64 CALM      30.15F
ELIZABETH CITY CLEAR     84  76  76 SE7       30.15F
KITTY HAWK     CLEAR     81  75  83 CALM      30.15F
MANTEO         MOCLDY    82  75  78 SE7       30.16F

$$

NCZ045>047-081-094-103-104-220000-
CENTRAL COAST

CITY           SKY/WX    TMP DP  RH WIND       PRES   REMARKS
FRISCO         CLEAR     84  78  82 S3        30.17S

$$

NCZ095-097-098-100-101-220000-
SOUTHERN COAST

CITY           SKY/WX    TMP DP  RH WIND       PRES   REMARKS
BEAUFORT       CLEAR     83  75  77 S5        30.15F
CEDAR ISLAND   NOT AVBL
JACKSONVILLE   CLEAR     84  76  76 S6        30.15S
PINEY ISLAND   CLEAR    N/A N/A N/A S5        30.16R
WILMINGTON     PTCLDY    83  76  79 SE8       30.15S


$$

NCZ011>013-027>030-043-044-078>080-089-090>093-098-220000-
COASTAL PLAIN

CITY           SKY/WX    TMP DP  RH WIND       PRES   REMARKS
AHOSKIE          N/A     81  74  79 CALM      30.14F
CLINTON        MOSUNNY   87  76  67 S3        30.14F
ELIZABETHTOWN  NOT AVBL
GOLDSBORO      PTCLDY    88  75  65 SE8       30.13F
GREENVILLE     CLEAR     86  72  62 SE6       30.16S
HAVELOCK       CLEAR     85  74  69 S6        30.16F
KENANSVILLE    PTCLDY    84  75  74 SE3       30.15S
KINSTON        CLEAR     88  72  58 SE7       30.14F
NEW BERN       PTCLDY    85  76  74 E5        30.16F
RICHLANDS      CLEAR     84  76  76 SE5       30.16S
ROCKY MOUNT    CLEAR     85  75  72 CALM      30.14F
WASHINGTON     CLEAR     84  74  71 SE5       30.15F
WHITEVILLE     CLOUDY    85  74  70 S6        30.14F

$$

AMZ130-135-150-152-154-156-158-170-250-252-270-ANZ085-086-088-633-658-670-220000-
MARINE OBSERVATIONS

STATION/POSITION TIME  TEMP    WIND        PRES    WAVE   SWELL
                       AIR SEA DIR/SP/G            HT/PER HT/PER
                 (UTC) (F)     (DEG/KT/KT) (MB)    (FT/S) (FT/S)
CHESAPEAKE LIGHT NOT AVBL
64 E VA BEACH    2250   79 81  110/  6/  6 1021.8    2/ 8   2/ 8
DUCK             2300   83 76  130/  8/  9 1020.7
2 E DUCK         2300      82                N/A     2/ 8
OREGON INLET     2300   83 85  120/  6/  9 1021.3
13E OREGON INLT  2248      81                N/A     2/ 9   2/ 9
HATTERAS CG      2300   83 81  170/  3/  4 1021.5
DIAMOND BUOY     2250   83 85  210/  4/  6 1021.2    2/ 8   2/ 8
CAPE LOOKOUT     2300   82     140/  3/  4 1020.7
BEAUFORT LAB     2300   83 81  180/  5/  7 1020.5
30 SE NEW RVR IN 2308   82 84  200/  6/  8 1020.8
30 SE NEW RVR IN 2313      84                N/A     3/11   2/11
27 SE WRIGHTSVLE 2308   83 84  160/  8/ 10 1020.6
5 SE WRIGHTSVLE  2308   82 83  160/ 10/ 14 1020.6
225 S CAPE HAT   2250   83 85  130/  6/  8 1020.6    4/ 9   3/ 9
41 SE CHARLESTON 2310   81 85  170/  8/ 10 1019.8

$$




USA.gov is the U.S. government's official web portal to all federal, state and local government web resources and services.